This is the latest recevied weather packets stored in our database for station/object AD8BV. If no packets are shown the sender has not sent any weather packets the latest 10 day(s).
| Time | Temp. | Humidity | Pressure | Rain* | Wind** | Luminosity | Snow |
|---|---|---|---|---|---|---|---|
| 1778017130 | 11.67° C | 52% | 1009.2 hPa | 0 mm | - | 111 W/m² | - |
| 1778016827 | 12.22° C | 52% | 1009.8 hPa | 0 mm | - | 117 W/m² | - |
| 1778016523 | 12.22° C | 53% | 1009.3 hPa | 0 mm | - | 121 W/m² | - |
| 1778016220 | 12.22° C | 52% | 1009.3 hPa | 0 mm | - | 129 W/m² | - |
| 1778015916 | 12.22° C | 51% | 1009.7 hPa | 0 mm | - | 135 W/m² | - |
| 1778015614 | 11.67° C | 50% | 1009.7 hPa | 0 mm | - | 104 W/m² | - |
| 1778015310 | 11.67° C | 52% | 1009.6 hPa | 0 mm | - | 77 W/m² | - |
| 1778015008 | 11.67° C | 51% | 1009.5 hPa | 0 mm | - | 85 W/m² | - |
| 1778014704 | 11.67° C | 50% | 1009.6 hPa | 0 mm | - | 100 W/m² | - |
| 1778014403 | 11.67° C | 52% | 1009.7 hPa | 0 mm | - | 104 W/m² | - |
| 1778014099 | 11.67° C | 53% | 1009.7 hPa | 0 mm | - | 105 W/m² | - |
| 1778013797 | 11.67° C | 52% | 1009.6 hPa | 0 mm | - | 114 W/m² | - |
| 1778013494 | 11.67° C | 53% | 1010.1 hPa | 0 mm | - | 106 W/m² | - |
| 1778013190 | 11.67° C | 51% | 1009.7 hPa | 0 mm | - | 96 W/m² | - |
| 1778012887 | 12.22° C | 53% | 1009.7 hPa | 0 mm | - | 94 W/m² | - |
| 1778012583 | 12.22° C | 53% | 1009.7 hPa | 0 mm | - | 124 W/m² | - |
| 1778012280 | 12.22° C | 51% | 1009.8 hPa | 0 mm | - | 158 W/m² | - |
| 1778011977 | 12.22° C | 52% | 1010 hPa | 0 mm | - | 142 W/m² | - |
| 1778011676 | 12.78° C | 56% | 1009.7 hPa | 0 mm | - | 154 W/m² | - |
| 1778011372 | 12.78° C | 53% | 1009.6 hPa | 0 mm | - | 134 W/m² | - |
| 1778011067 | 12.78° C | 53% | 1009.7 hPa | 0 mm | - | 166 W/m² | - |
| 1778010765 | 12.78° C | 55% | 1009.5 hPa | 0 mm | - | 190 W/m² | - |
| 1778010462 | 12.78° C | 58% | 1009.7 hPa | 0 mm | - | 207 W/m² | - |
| 1778010159 | 12.22° C | 56% | 1009.4 hPa | 0 mm | - | 249 W/m² | - |
| 1778009854 | 12.22° C | 56% | 1009.6 hPa | 0 mm | - | 184 W/m² | - |
* Rain latest hour (hover to see other rain measurements)
** Current wind speed in m/s (hover to see current wind gust speed)